STARLINK-1190, 45083

Orbit data source: Space-Track

STARLINK-1190, 45083 is a payload satellite owned by SpaceX/Seattle (US) in LEO that was launched on Wed, 29 Jan 2020 UTC via an FALCON 9 launch vehicle from the Air Force Eastern Test Range (AFETR). Payloads include a variety of satellites, spacecraft, and rockets equipped with specific instruments for various scientific and technological missions. These include communications satellites like Starlink; space stations such as the ISS; scientific satellites like the Hubble; Earth observation satellites from companies like Planet Labs, Umbra, and HawkEye 360; GPS; miniature CubeSats for education and research; and military/defense satellites.

Loading next visibility...
STARLINK-1190 details
Identifier
45083, 2020-006AR
Orbit
LEO
Last TLE update7 hours ago
Origin
Flag of USSpaceX/Seattle (US)
ManufacturerSpaceX/Seattle
MissionOperational Commercial Communications
Bus & MotorSTARLINK, Unknown motor
Mass260 kg wet, ~248 kg dry
Launch date (UTC)
2020-01-29 (5 years ago)
Launch vehicle
FALCON 9
Launch site
Air Force Eastern Test Range (AFETR)
Object type
Payload
Rocket body
Debris
Shape & HBRBox + 1 Pan, 8.86 m
Radar Cross Section13.562 m², Large (>1 m²)

Expand to show TLE details & history

TLE from 7 hours ago
0 STARLINK-1190
1 45083U 20006AR  24339.86374692 -.00005958  00000-0 -38136-3 0  9997
2 45083  53.0538 190.8530 0001560  95.1535 264.9632 15.06401605267153
Epoch: 2024-12-04T20:43Z
Definitive object data (Epoch: 2024-12-04T20:43:47.733Z)
Latitude-0.00005°
Longitude165.75129°
Altitude548.181 km
Speed7.589 km/s
True Right ascension12h 43m 24s
True Declination0° 00' 00"
Sunlit
Object was in daylight at TLE epoch
Visualization TLE readout
Latitude-35.56833°
Longitude16.70729°
Altitude559.262 km
Speed7.581 km/s
Apparent Right ascension05h 59m 11s
Apparent Declination-81° 10' 44"
Sunlit
Object is in full shadow
Visualization observer readout
Local Sidereal Time02:03:21
Azimuth170.771° S
Elevation-34.99°
Doppler factor1
Orbital elements
Apogee altitude548.558 km
Perigee altitude546.397 km
Semi-major axis6,925.614 km
Eccentricity0.000156
Inclination53.0538°
RAAN190.853°
Arg. of periapsis95.1535°
True anomaly264.94539°
Mean anomaly264.9632°
Eccentric anomaly264.9543°
Mean motion3.76579 °/min
BSTAR-0.00038136
Orbital period95.6 mins
Loading maneuver chart data...
Loading historical data...
Loading historical data...
Loading historical data...
Loading historical data...
Loading historical data...
Loading historical data...
Loading historical data...

STARLINK-1190 Visibility forecast

Observer location: undefined°, undefined

Span
Click to sort rows by Start time (UTC) header in descending order
Start Az.
Max El. time (UTC)
Max El. Az.
Max El.
End time (UTC)
End Az.
6 mins2024-12-05 15:59:00.062Z183.874° SSW2024-12-05 16:02:00.062Z133.384° SE23.14°2024-12-05 16:05:00.062Z78.335° E
6 mins2024-12-05 17:39:00.062Z260.748° W2024-12-05 17:41:00.062Z303.961° NW34.678°2024-12-05 17:45:00.062Z38.855° NE
5 mins2024-12-05 22:41:00.062Z337.588° N2024-12-05 22:43:00.062Z20.058° NNE27.26°2024-12-05 22:46:00.062Z84.938° E
5 mins2024-12-06 00:21:00.062Z282.26° WNW2024-12-06 00:23:00.062Z221.387° SW34.356°2024-12-06 00:26:00.062Z158.595° S
|